Location: Chillot
(46.3429°N, 3.2642°E)
Time: 02:32:02
(UTC+00:00)

Daily predictions for brighter satellites

Satellite Brightness Start Highest point End
(mag) Time Altitude Azimuth Time Altitude Azimuth Time Altitude Azimuth
Cosmos 2263 Rocket 4.5 03:01:26 20° ENE 03:01:26 20° ENE 03:03:36 10° NE
ATLAS 3B R/B 3.8 03:30:35 34° NNE 03:31:23 35° NE 03:37:50 10° E
Lacrosse 4 Rocket 4.2 03:38:11 16° ESE 03:38:11 16° ESE 03:39:13 10° ESE
ALOS 3.9 03:50:12 10° NNE 03:53:16 31° ENE 03:53:16 31° ENE
NOSS 3-2 (C) 4.0 04:00:07 72° SW 04:00:07 72° SW 04:08:23 10° SSE
NOSS 3-4 (A) 3.6 04:00:50 65° SE 04:00:56 65° ESE 04:07:08 10° NE
NOSS 3-4 (C) 3.6 04:00:54 64° SE 04:01:03 65° ESE 04:07:16 10° NE
CENTAUR R/B 3.0 04:01:35 71° WSW 04:01:52 72° WSW 04:10:41 10° SSE
SL-4 R/B 4.1 04:15:02 21° NE 04:15:02 21° NE 04:16:28 10° ENE
Cosmos 1151 Rocket 4.3 04:17:01 35° SE 04:17:01 35° SE 04:19:46 10° SSE
Cosmos 1782 4.4 04:16:34 32° ENE 04:16:57 33° ENE 04:20:37 10° SE
ATLAS 2AS CENTAUR R/B 3.2 04:15:30 25° SSW 04:20:29 73° ESE 04:28:20 10° NE
Cosmos 1680 Rocket 4.2 04:20:02 36° N 04:21:51 52° ENE 04:27:02 10° SE
Atlas Centaur 2 4.4 04:26:41 15° SSW 04:28:33 17° S 04:32:09 10° SE
ATLAS 5 CENTAUR R/B 4.1 04:31:19 16° NNE 04:31:19 16° NNE 04:31:56 10° NNE
RESURS DK-1 4.2 04:27:38 10° S 04:31:19 31° ESE 04:35:01 10° NE
ATLAS CENTAUR R/B 2.6 04:32:06 32° NE 04:32:06 32° NE 04:35:35 10° ESE
Lacrosse 5 1.9 04:32:03 69° S 04:32:29 74° SE 04:37:33 10° NE
ADEOS 3.6 04:29:16 10° NNE 04:34:31 80° ESE 04:39:44 10° SSW
Cosmos 1328 Rocket 3.6 04:35:39 76° E 04:35:39 76° E 04:40:02 10° SSE
Cosmos 2112 Rocket 4.3 04:38:53 28° N 04:41:40 66° ENE 04:46:58 10° SSE
Cosmos 2263 Rocket 2.5 04:43:11 47° NNW 04:43:11 47° NNW 04:48:02 10° NNE
Gbstr 26 Del rocket 3.1 04:43:34 60° E 04:43:34 60° E 04:46:50 10° ESE
SJ 16-02 1.7 04:45:52 52° N 04:45:52 52° N 04:49:21 10° NNE
Cosmos 1898 Rocket 4.0 04:47:13 10° S 04:52:26 60° ESE 04:57:41 10° NNE
Meteor 1-26 Rocket 4.1 04:48:59 19° NNW 04:53:15 74° W 04:58:49 10° S
FALCON 9 DEB 3.7 04:56:35 52° E 04:56:35 52° E 04:59:10 10° ENE
FALCON 9 DEB 3.7 04:56:45 52° ENE 04:56:45 52° ENE 04:59:18 10° ENE
FENGYUN 3A 3.6 04:54:04 10° N 04:59:22 57° WNW 05:04:38 10° SSW
Cosmos 1408 Rocket 3.5 04:57:33 10° S 05:02:01 87° W 05:06:30 10° N
Cosmos 2181 Rocket 3.9 04:58:16 10° NNW 05:04:23 62° W 05:10:25 10° S
COSMO-SKYMED 1 2.4 05:01:15 10° S 05:05:35 79° WSW 05:08:00 26° NNW
USA 307 4.1 05:05:08 28° NNW 05:05:46 29° N 05:09:35 10° ENE
Cosmos 1709 Rocket 4.2 05:00:44 10° SSW 05:06:49 46° WNW 05:12:57 10° N
Cosmos 1937 Rocket 4.0 05:04:27 10° S 05:09:30 61° ESE 05:14:38 10° NNE
USA 308 4.1 05:11:14 27° NNW 05:12:10 30° N 05:16:00 10° ENE
Lacrosse 4 Rocket 2.6 05:14:32 27° SW 05:14:32 27° SW 05:17:35 10° S
Meteor 2-3 Rocket 3.8 05:08:30 10° SSW 05:14:04 53° WNW 05:19:45 10° N
CZ-4C R/B 2.0 05:11:05 16° SW 05:15:08 84° NW 05:21:09 10° NE
MOS 1 Rocket 4.0 05:11:18 10° SSE 05:16:01 58° ENE 05:21:05 10° N
Cosmos 1943 4.3 05:17:54 24° WSW 05:17:54 24° WSW 05:21:39 10° SSW
CZ-4B R/B 3.0 05:13:30 10° NNE 05:18:02 84° WNW 05:22:26 10° SSW
Cosmos 1689 Rocket 2.2 05:15:46 10° S 05:18:12 56° SSW 05:18:12 56° SSW
FALCON 9 DEB 2.8 05:18:33 69° WNW 05:18:48 76° NNW 05:22:02 10° ENE
Meteor 1-10 Rocket 4.5 05:15:13 10° N 05:20:47 70° ENE 05:26:22 10° SSE
SAR-Lupe-4 3.8 05:19:02 10° S 05:22:27 44° W 05:22:38 44° W
ATLAS 3B R/B 2.7 05:17:51 22° NW 05:22:37 72° WSW 05:29:48 10° SSE
Aureole 2 Rocket 3.6 05:21:10 10° S 05:23:28 32° ESE 05:25:49 10° NE
Cosmos 1862 3.5 05:22:44 10° S 05:26:47 77° E 05:30:51 10° NNE
Genesis I 3.0 05:24:54 16° SW 05:27:54 80° NW 05:31:47 10° NE
YAOGAN 6 4.0 05:25:22 10° NNE 05:28:41 39° E 05:31:58 10° S
deb Chang Zheng 4 4.0 05:27:42 10° N 05:31:45 39° WNW 05:35:47 10° SW
ALOS 3.1 05:27:55 10° N 05:31:44 27° WNW 05:31:44 27° WNW
Cosmos 858 Rocket 4.4 05:28:34 10° SSW 05:33:47 86° WNW 05:39:04 10° NNE
Cosmos 990 Rocket 4.1 05:30:01 10° SW 05:35:09 54° WNW 05:40:20 10° NNE
Cosmos 2074 Rocket 3.9 05:30:32 10° SSW 05:36:42 66° WNW 05:42:53 10° N
PSLV R/B 4.0 05:33:42 10° NNE 05:37:35 70° ESE 05:41:21 10° S
ASTRO F (AKARI) 4.1 05:36:26 10° NNE 05:39:33 84° W 05:42:41 10° SSW
USA 305 4.0 05:38:55 20° NW 05:41:11 33° NNE 05:45:07 10° ENE
Meteor 1-31 Rocket 4.1 05:38:20 10° NNW 05:40:29 22° NW 05:40:29 22° NW
BREEZE M DEB (TANK) 3.6 05:33:17 10° SW 05:41:32 50° SSE 05:44:25 10° E
Cosmos 405 Rocket 2.5 05:38:54 10° SSW 05:42:35 79° W 05:46:22 10° N
EO 1 Delta rocket 3.9 05:41:52 10° S 05:46:52 62° W 05:51:28 10° NNW
Cosmos 1812 2.7 05:43:27 10° NNW 05:47:15 62° W 05:51:02 10° S
USA 306 4.0 05:47:01 18° NW 05:49:41 34° NNE 05:53:39 10° E
Cosmos 2228 Rocket 3.0 05:45:24 10° NNW 05:49:47 64° W 05:54:07 10° S
Cosmos 1515 Rocket 4.3 05:46:48 13° NNW 05:50:11 31° W 05:54:07 10° SSW
CENTAUR R/B 4.4 05:48:50 16° W 05:51:38 19° WSW 05:57:12 10° SW
NOSS 3-4 (A) 4.2 05:48:19 17° W 05:52:16 33° NNW 05:58:06 10° NNE
NOSS 3-4 (C) 4.1 05:48:24 17° W 05:52:23 34° NNW 05:58:13 10° NNE
SL-4 R/B 2.6 05:50:37 20° NW 05:52:51 37° N 05:56:17 10° ENE
Cosmos 1782 4.1 05:52:15 20° WNW 05:53:03 21° W 05:56:06 10° SW
DMSP B5D1-3 4.5 05:48:27 10° S 05:53:34 70° WSW 05:58:44 10° NNW
Cosmos 2184 Rocket 4.2 05:48:08 10° SSW 05:54:16 52° WNW 06:00:30 10° N
USA-17 4.4 05:51:23 10° SW 05:54:59 53° NW 05:58:02 10° NNE
FALCON 9 DEB 3.5 05:56:59 20° W 05:58:45 39° NNW 06:01:48 10° NE
USA 234 3.8 05:52:17 10° ENE 05:58:46 62° SE 06:05:13 10° SW
Spot 2 4.4 05:54:46 10° NNE 05:59:57 78° WNW 06:05:00 10° SSW
Cosmos 1844 Rocket 2.8 05:55:19 10° SW 06:00:50 53° WNW 06:06:25 10° NNE
FALCON 9 DEB 4.3 05:59:52 15° NW 06:02:12 33° NNE 06:05:23 10° E
EXPRESS MD2 4.0 06:03:36 15° WNW 06:06:50 84° NNE 06:14:47 10° ESE
Cosmos 1707 Rocket 3.7 06:02:28 10° N 06:06:50 75° E 06:11:09 10° SSE
MOS 1-B 4.4 06:03:01 10° NNE 06:08:53 89° WNW 06:14:43 10° SSW
COSMOS 2455 2.9 06:02:53 10° SSW 06:08:56 88° ESE 06:15:01 10° NNE
RESURS DK-1 3.2 06:05:41 10° WSW 06:09:19 29° NW 06:13:01 10° N
BREEZE-M (TANK) 4.3 06:03:04 10° SW 06:10:09 37° SSE 06:12:50 10° E
ATLAS CENTAUR R/B 2.3 06:08:18 14° WNW 06:10:51 28° WSW 06:14:15 10° S
BREEZE-M DEB 4.0 06:02:56 12° WNW 06:11:18 47° SW 06:14:25 10° SSE
NOAA 6 4.0 06:06:53 10° N 06:12:00 75° WNW 06:17:06 10° SSW
ATLAS 2AS CENTAUR R/B 3.5 06:04:45 10° WSW 06:12:08 39° NW 06:19:20 10° NNE
ERBS 4.5 06:11:06 10° NW 06:12:49 13° N 06:14:32 10° NNE
Cosmos 1500 Rocket 4.3 06:10:11 10° SW 06:13:59 30° WNW 06:17:50 10° N
H-2A R/B 3.4 06:11:01 10° N 06:14:34 33° WNW 06:18:04 10° SW
Cosmos 1844 3.8 06:09:21 10° SW 06:14:45 51° WNW 06:20:13 10° NNE
Lacrosse 5 2.6 06:11:18 11° W 06:15:49 35° NNW 06:20:30 10° NE
Atlas Centaur 2 4.4 06:13:39 10° SW 06:16:30 14° SSW 06:19:06 10° SSE
CZ-4B DEB 4.2 06:11:44 10° N 06:17:10 68° WNW 06:22:35 10° SSW
Cosmos 1437 Rocket 3.0 06:13:46 10° NNW 06:17:23 44° W 06:20:59 10° SSW
Cosmos 372 Rocket 3.9 06:13:08 10° SSW 06:18:12 69° WNW 06:23:18 10° NNE
Okean O Rocket 1.8 06:16:17 10° NNE 06:20:46 81° ESE 06:25:12 10° SSW
Geosat 4.3 06:16:56 10° SE 06:21:55 68° ENE 06:26:55 10° NNW
Cosmos 1242 Rocket 3.8 06:18:54 10° N 06:22:25 43° ENE 06:25:54 10° SSE
PAYLOAD B 4.2 06:18:06 10° NNE 06:23:37 73° WNW 06:29:04 10° SSW
USA 81 4.1 06:19:02 10° S 06:24:18 85° W 06:29:36 10° N
SJ 16-02 3.3 06:23:15 10° WNW 06:24:18 11° NW 06:25:22 10° NW
SMAP 3.0 06:19:47 10° NNE 06:24:28 83° WNW 06:29:07 10° SSW
Cosmos 2263 Rocket 4.0 06:25:34 10° WNW 06:27:52 12° NW 06:30:12 10° N
Gbstr 26 Del rocket 4.5 06:26:35 10° W 06:29:23 20° SW 06:32:21 10° S
ATLAS 5 CENTAUR R/B 2.1 06:27:20 10° SSW 06:31:19 61° SE 06:35:47 10° NE
FALCON 9 DEB 4.0 06:29:21 10° WNW 06:32:14 30° NNW 06:35:08 10° NE
FALCON 9 DEB 4.0 06:29:26 10° WNW 06:32:18 29° NNW 06:35:12 10° NE
Sich 1 3.3 06:30:19 10° SSW 06:34:36 47° WNW 06:38:54 10° N
Cosmos 2218 Rocket 4.2 06:28:26 10° S 06:34:43 79° E 06:40:56 10° N
CZ-2C R/B 2.7 06:30:10 10° S 06:35:38 70° WSW 06:41:01 10° NNW
